星链-37393(STARLINK-37393)

导读

STARLINK-37393(NORAD编号:68776)是美国太空探索技术公司(SpaceX)星链(Starlink)低轨卫星互联网星座的一员,作为星链二代卫星之一,它主要为全球提供宽带互联网接入服务,尤其填补偏远地区、网络基础设施匮乏区域的网络覆盖空白。 该卫星部署于近地轨道,依托星链星座组网设计,可提供低延迟、高带宽的网络连接,支持消费级互联网接入、应急通信等多元场景。截至公开数据,它目前处于在轨运行状态,是SpaceX持续扩容星链星座、完成全球覆盖组网计划的组成部分,助力SpaceX巩固全球低轨卫星互联网的领先地位。

Basic Information
目录编号:
68776
目录名称:
STARLINK-37393
国际标识:
2026-086L
轨道中心:
EARTH
卫星名称:
星链-37393
卫星全名:
星链-37393(STARLINK-37393)
卫星状态:
在轨 (已飞行147 天)
发射日期:
2026-04-19 UTC
国别 :
美国 (US)
星等 :
--
This satellite is enrolled in the Space Conjunction Data Service (SCDS) and the current flight risk assessment level is: High Risk
Orbit Information
数据来源 国际轨道数据 AOE轨道数据
星历时间 2026-09-13T09:15:22+0800
12小时前
查看轨道信息
2026-09-06T22:00:00+0800
6天前
查看轨道信息
半长轴 6843.663km 6843.716km
偏心率 0.0001597 0.0001571
轨道倾角 97.284° 97.287°
近地点辐角 106.026° 93.707°
升交点赤经 291.589° 285.212°
平近点角 254.116° 218.271°
近地点 464.433km 464.503km
远地点 466.619km 466.655km
周期 93.906分钟 93.907分钟
每日圈数 15.33451 15.334331
Detailed Information
固有亮度:
5
最大亮度:
2.5
卫星平台:
Starlink V1.0
覆盖范围:
全球
运营商:
太空探索技术公司
运营商所在国:
美国
制造商(研发单位):
太空探索技术公司
制造商所在国:
美国
使用方式:
暂无
Satellite Introduction
Starlink 计划是 SpaceX 推出的全球卫星互联网项目,通过发射低轨道卫星,为全球尤其是偏远地区提供高速、低延迟的互联网服务。自 2019 年起,Starlink 已部署数千颗卫星,旨在缩小全球数字鸿沟,推动互联网普及。该项目还为军事、航空等行业提供通信支持,带来广泛经济效益。
2D Orbit Map
3D Orbit Map
Orbit Altitude Analysis Chart
Orbit Inclination Analysis Chart
Orbit Comprehensive Analysis Chart
View Comprehensive Chart
Conjunction Data List
Event ID Objects TCA Miss Dist (km) Collision Risk Probability Collision Risk Index (CRI) Action
CDM_260915-082205-308406-877621
2026-09-15T
08:22:28+0000
0.312 km
远距离
4.753208E-4 高风险 0.89
CDM_260915-064805-308406-877621
2026-09-15T
06:48:30+0000
1.831 km
极远距离
3.543603E-6 低风险 0.46
CDM_260914-025305-256506-877621
2026-09-14T
02:53:57+0000
2.162 km
极远距离
1.686602E-6 低风险 0.4
CDM_260915-030806-371006-877621
2026-09-15T
03:08:59+0000
2.488 km
极远距离
1.664562E-6 低风险 0.39
CDM_260915-035904-783806-877621
2026-09-15T
03:59:13+0000
2.943 km
极远距离
1.346931E-6 低风险 0.38
Miss Distance Evolution Trend with All Objects
Collision Probability Evolution Trend with All Objects